Regional Weather Roundup
Issued by NWS Sioux Falls, SD

Home | Current Version | Previous Version | Graphics & Text | Print | Product List | Glossary Off
Versions: 1 2 3 4 5 6 7 8 9 10 11 12 13 14 15 16 17 18 19 20 21 22 23 24 25 26 27 28 29 30 31 32 33 34 35 36 37 38 39 40 41 42 43 44 45 46 47 48 49 50

000
ASUS43 KFSD 222010
RWRFSD

WEATHER ROUNDUP FOR SE SOUTH DAKOTA/SW MINNESOTA/NW IOWA
NATIONAL WEATHER SERVICE SIOUX FALLS SD
200 PM CST WED NOV 22 2017

NOTE: "FAIR" INDICATES FEW OR NO CLOUDS BELOW 12,000 FEET WITH NO
SIGNIFICANT WEATHER AND OR OBSTRUCTIONS TO VISIBILITY.


SDZ038>040-050-052>070-222100-
SOUTHEAST SOUTH DAKOTA

CITY           SKY/WX    TMP DP  RH WIND       PRES   REMARKS
BROOKINGS      CLOUDY    34  16  47 S21G26    30.00F WCI  22
CHAMBERLAIN    SUNNY     56  33  41 S5        29.95F
HURON          CLOUDY    37  20  50 S16G22    29.97F
MADISON        FAIR      32  16  51 S17G25    30.01F WCI  21
MITCHELL       MOSUNNY   43  21  41 S12       30.01F
SIOUX FALLS    CLOUDY    36  18  48 S20G28    30.05F
WINNER         FAIR      68  37  32 W15       29.95F
YANKTON        CLOUDY    43  19  38 S16       30.05F
$$

MNZ071-072-080-081-089-090-097-098-222100-
SOUTHWEST MINNESOTA

CITY           SKY/WX    TMP DP  RH WIND       PRES   REMARKS
FAIRMONT       CLOUDY    32  15  49 S18       30.14F WCI  20
JACKSON        CLOUDY    32  12  43 S17       30.11F WCI  21
LUVERNE        CLOUDY    34  12  40 S17G23    30.09F WCI  23
MARSHALL       CLOUDY    36  13  38 S20       30.03F
MONTEVIDEO     CLOUDY    32  14  47 S9G16     30.04F WCI  24
PIPESTONE      CLOUDY    32  12  43 SW18      30.04F WCI  20
REDWOOD FALLS  CLOUDY    33  12  41 S18       30.07F WCI  22
WINDOM           N/A     32  12  43 S15G24    30.07F WCI  22
WORTHINGTON    CLOUDY    32  12  43 S20G25    30.07F WCI  20
$$

IAZ001>003-012>014-020>022-031-032-NEZ013-014-SDZ071-222100-
NORTHWEST IOWA

CITY           SKY/WX    TMP DP  RH WIND       PRES   REMARKS
CHEROKEE       CLOUDY    36  13  39 S14       30.14F
DENISON        SUNNY     37  14  38 S16G23    30.18F
ESTHERVILLE    PTSUNNY   32  13  45 S18G25    30.13F WCI  20
LE MARS        CLOUDY    36  14  41 S20G25    30.11F
ORANGE CITY    CLOUDY    36  18  48 S17G23    30.09F
SHELDON        CLOUDY    34  12  40 S15G23    30.08F WCI  24
SIOUX CITY     CLOUDY    36  16  44 S15       30.14F
SPENCER        CLOUDY    34  12  40 S16       30.12F WCI  24
STORM LAKE     SUNNY     34  12  40 S18       30.13F WCI  23
$$

ABBREVIATIONS USED IN REMARKS
   TC - TEMPERATURE IN CELSIUS
  WCI - WIND CHILL INDEX
   HX - HEAT INDEX
  VSB - VISIBILITY




USA.gov is the U.S. government's official web portal to all federal, state and local government web resources and services.